COSMOS 249 DEB, 3606

Orbit data source: Space-Track

COSMOS 249 DEB, 3606 is space debris in LEO originally from a launch on Sun, 20 Oct 1968 UTC launched from the Tyuratam Missile And Space Complex (TTMTR). Debris objects in space refer to the collection of defunct objects orbiting the Earth. Examples of debris include non-operational satellites, rocket bodies, and fragments generated from explosions, collisions, or faulty payload assembly.

Loading next visibility...
Identifier
3606, 1968-091Y
Orbit
LEO
Country
Flag of CISCIS
Related business
Manufacturer
Unknown
Mission
Spacecraft
Bus & Motor
Unknown
Mass
Unknown
Launch date (UTC)
1968-10-20 (57 years ago)
Launch vehicle
Unknown
Launch site
Tyuratam Missile And Space Complex (TTMTR)
Object type
Payload
Rocket body
Debris
Shape & HBR
Unknown shape, 0.1 m
Radar Cross Section
Small (<0.1 m²)

Expand to show TLE details & history
Last TLE update: 10 hours ago

TLE from 10 hours ago
0 COSMOS 249 DEB
1 03606U 68091Y   25340.95337339  .00000976  00000-0  87420-3 0  9991
2 03606  62.2555 230.2932 0731296 239.9138 112.7419 13.05687075659564
Epoch: 2025-12-06T22:52Z
TLE epoch observation values (Epoch: 2025-12-06T22:52:51.460Z)
Latitude
-0.00004°
Longitude
171.10505°
Altitude
1,490.038 km
Speed
7.002 km/s
True Right ascension
15h 21m 10s
True Declination
0° 00' 00"
Sunlit
Object was in daylight at epoch
Visualization orbit readout
Latitude
Unknown
Longitude
Unknown
Altitude
Unknown
Speed
Unknown
Apparent Right ascension
Unknown
Apparent Declination
Unknown
Sunlit
N/A
Visualization observer readout
Local Sidereal Time
07:21:28
Azimuth
Unknown
Elevation
Unknown
Doppler factor
Unknown
Orbital elements
Apogee altitude
1,795.903 km
Perigee altitude
681.845 km
Semi-major axis
7,617.011 km
Eccentricity
0.07313
Inclination
62.2555°
RAAN
230.2932°
Arg. of periapsis
239.9138°
True anomaly
120.18541°
Mean anomaly
112.7419°
Eccentric anomaly
116.49195°
Mean motion
3.26487 °/min
Orbital period
110.26 mins
BSTAR
0.0008742
Loading maneuver chart data...
Computing Atmospheric mass density...

Documentation

Showing up to 5 results
|